Danbury, CT

8:46 AM EDT on September 29, 2016 (GMT -0400)
Danbury Municipal

Weather History for KDXR - March, 2012

Change the Weather History Date:

Friday, March 16, 2012

  Actual Average Record
Temperature  
Mean Temperature 44 °F -  
Max Temperature 48 °F 47 °F 66 °F (1973)
Min Temperature 39 °F 26 °F 14 °F (1979)
Degree Days  
Heating Degree Days 22    
Moisture  
Dew Point 31 °F    
Average Humidity 62    
Maximum Humidity 97    
Minimum Humidity 35    
Precipitation  
Precipitation 0.00 in - - ()
Sea Level Pressure  
Sea Level Pressure 30.20 in    
Wind  
Wind Speed 4 mph (South)    
Max Wind Speed 10 mph    
Max Gust Speed -    
Visibility 7 miles    
Events      
Averages and records for this station are not official NWS values.
T = Trace of Precipitation, MM = Missing Value Source: NWS Daily Summary

Daily Weather History Graph

Daily Weather History Graph

Search for Another Location

Airport or City:

Trip Planner

Search our weather history database for the weather conditions in past years. The results will help you decide how hot, cold, wet, or windy it might be!

Date:

Astronomy

Mar. 16, 2012 Rise Set
Actual Time 7:03 AM EDT 7:02 PM EDT
Civil Twilight 6:35 AM EDT 7:29 PM EDT
Nautical Twilight 6:03 AM EDT 8:01 PM EDT
Astronomical Twilight 5:30 AM EDT 8:34 PM EDT
Moon 3:22 AM EDT (3/16) 1:16 PM EDT (3/16)
Length of Visible Light 12h 54m
Length of Day
11h 58m
Waning Crescent, 33% of the Moon is Illuminated
Mar 16
Waning Crescent
Mar 22
New
Mar 30
First Quarter
Apr 6
Full
Apr 13
Last Quarter

Hourly Weather History & Observations

Time (EDT) Temp. Windchill Dew Point Humidity Pressure Visibility Wind Dir Wind Speed Gust Speed Precip Events Conditions
12:53 AM 41.0 °F 35.8 °F 37.9 °F 89% 30.31 in 10.0 mi SE 8.1 mph - N/A   Overcast
1:53 AM 39.9 °F 35.8 °F 37.9 °F 93% 30.29 in 9.0 mi East 5.8 mph - N/A   Overcast
2:53 AM 39.9 °F 37.8 °F 39.0 °F 97% 30.28 in 7.0 mi SE 3.5 mph - N/A   Overcast
3:53 AM 39.9 °F 36.7 °F 27.0 °F 60% 30.25 in 7.0 mi ESE 4.6 mph - N/A   Overcast
4:53 AM 39.9 °F - 30.9 °F 70% 30.25 in 4.0 mi Calm Calm - N/A   Haze
5:53 AM 39.9 °F 33.4 °F 32.0 °F 73% 30.27 in 3.0 mi SSE 10.4 mph - N/A   Haze
6:53 AM 39.9 °F 35.8 °F 32.0 °F 73% 30.26 in 9.0 mi ESE 5.8 mph - N/A   Overcast
7:53 AM 39.9 °F 37.8 °F 32.0 °F 73% 30.26 in 10.0 mi East 3.5 mph - N/A   Overcast
8:53 AM 41.0 °F 38.0 °F 30.9 °F 67% 30.25 in 10.0 mi SE 4.6 mph - N/A   Overcast
9:53 AM 41.0 °F 38.0 °F 32.0 °F 70% 30.24 in 3.0 mi SSE 4.6 mph - N/A   Haze
10:53 AM 42.1 °F 39.2 °F 32.0 °F 67% 30.23 in 5.0 mi SSE 4.6 mph - N/A   Haze
1:53 PM 45.0 °F - 32.0 °F 60% 30.17 in 10.0 mi Calm Calm - N/A   Overcast
2:53 PM 46.0 °F 44.8 °F 30.9 °F 56% 30.14 in 10.0 mi South 3.5 mph - N/A   Overcast
3:53 PM 48.0 °F - 30.9 °F 52% 30.12 in 10.0 mi Calm Calm - N/A   Overcast
4:53 PM 48.9 °F - 30.9 °F 50% 30.12 in 10.0 mi West 6.9 mph - N/A   Overcast
5:53 PM 48.9 °F - 30.9 °F 50% 30.12 in 10.0 mi WSW 5.8 mph - N/A   Overcast
6:53 PM 48.0 °F - 30.0 °F 50% 30.14 in 10.0 mi SW 4.6 mph - N/A   Overcast
7:53 PM 46.9 °F - 30.0 °F 52% 30.16 in 10.0 mi Calm Calm - N/A   Overcast
8:36 PM 44.6 °F - 28.4 °F 53% 30.15 in 8.0 mi Calm Calm - N/A   Scattered Clouds
8:53 PM 46.0 °F - 30.0 °F 54% 30.16 in 9.0 mi Calm Calm - N/A   Clear
9:01 PM 44.6 °F - 30.2 °F 57% 30.16 in 8.0 mi Calm Calm - N/A   Scattered Clouds
9:10 PM 42.8 °F 41.1 °F 30.2 °F 61% 30.16 in 7.0 mi WSW 3.5 mph - N/A   Mostly Cloudy
9:53 PM 46.0 °F 44.8 °F 23.0 °F 40% 30.17 in 5.0 mi WSW 3.5 mph - N/A   Haze
10:21 PM 46.4 °F 44.3 °F 30.2 °F 53% 30.17 in 4.0 mi Variable 4.6 mph - N/A   Haze
10:45 PM 46.4 °F 44.3 °F 28.4 °F 50% 30.17 in 2.5 mi WSW 4.6 mph - N/A   Haze
10:53 PM 46.0 °F - 19.9 °F 35% 30.18 in 2.5 mi Calm Calm - N/A   Haze
11:15 PM 46.4 °F 45.2 °F - N/A% 30.17 in 1.8 mi WSW 3.5 mph - N/A   Overcast
11:53 PM 46.0 °F - - N/A% 30.19 in 1.0 mi Calm Calm - N/A   Overcast